Regional Weather Roundup
Issued by NWS

Home | Current Version | Previous Version | Graphics & Text | Print | Product List | Glossary On
Versions: 1 2 3 4 5 6 7 8 9 10 11 12 13 14 15 16 17 18 19 20 21 22 23 24 25 26 27
000
ASUS45 KBOU 200407
RWRCO

WEATHER ROUNDUP FOR COLORADO
NATIONAL WEATHER SERVICE DENVER/BOULDER CO
900 PM MST SUN FEB 19 2017

NOTE: "FAIR" INDICATES FEW OR NO CLOUDS BELOW 12000 FEET WITH NO
SIGNIFICANT WEATHER AND/OR OBSTRUCTIONS TO VISIBILITY.

COZ001>005-013-030-031-200500-
...NORTHWEST COLORADO...

CITY           SKY/WX    TMP DP  RH WIND       PRES   REMARKS
CRAIG          FLURRIES  34  31  88 S7        29.91R WCI  28
HAYDEN         CLOUDY    32  28  86 SW8       29.90R WCI  25
MEEKER         LGT SNOW  33  32  96 S3        29.92R FOG
MOUNT WERNER   NOT AVBL
STEAMBOAT SPGS CLOUDY    31  31  99 SW9G16    29.89R WCI  23
WALDEN         NOT AVBL
$$

COZ006>008-011-200500-
...WEST CENTRAL VALLEYS...

CITY           SKY/WX    TMP DP  RH WIND       PRES   REMARKS
GRAND JUNCTION CLOUDY    41  41 100 CALM      29.92R
MONTROSE       LGT RAIN  40  34  79 NE5       29.94R
EAGLE          CLOUDY    37  30  75 NW10      29.89R
RIFLE          CLOUDY    40  36  86 SW7       29.90R
DELTA          CLOUDY    42  38  88 N5        29.93R
NUCLA          CLOUDY    41  34  75 SW5       29.98R
$$

COZ017>023-064>068-200500-
...SOUTHWEST COLORADO...

CITY           SKY/WX    TMP DP  RH WIND       PRES   REMARKS
DURANGO        MOCLDY    34  30  85 SW9       29.94R WCI  27
CORTEZ         LGT RAIN  38  35  89 W10       29.96R
PAGOSA SPRINGS CLOUDY    32  32 100 CALM      29.95R
TELLURIDE      NOT AVBL
WOLF CREEK PAS HVY SNOW  16  16 100 S20G25    29.97R VSB 1/4 WCI  -1
$$

COZ009-010-012-014-032>034-037-058>063-200500-
...CENTRAL COLORADO...

CITY           SKY/WX    TMP DP  RH WIND       PRES   REMARKS
ASPEN          CLOUDY    33  28  81 CALM      29.87R
BUENA VISTA    FAIR      36  18  48 W10G21    29.82R
COPPER MTN     LGT SNOW  25  19  80 MISG      29.88R VSB 3/4
BERTHOUD PASS  SNOW      16   7  67 MISG      29.79S VSB 1/2
COTTONWOOD PAS CLOUDY    32  16  51 W18G33    29.82R WCI  20
GUNNISON       FAIR      34  25  69 SW10      29.90R WCI  26
KREMMLING      LGT SNOW  37  36  93 CALM      29.87R VSB 3/4
LEADVILLE      LGT SNOW  24  19  81 N5        29.86R WCI  18
MONARCH PASS   FOG       19  18  93 W38G51    29.94R VSB 1/4 WCI  -1
SALIDA         CLOUDY    40  21  46 W20G29    29.87S
SUNLIGHT       NOT AVBL
WILKERSON PASS LGT SNOW  23  21  93 W12G20    29.85R WCI  12
$$

COZ069>075-200500-
...SAN LUIS VALLEY/SANGRE DE CRISTO MOUNTAINS...

CITY           SKY/WX    TMP DP  RH WIND       PRES   REMARKS
ALAMOSA        FAIR      30  23  75 S6        29.86R WCI  24
LA VETA PASS   FAIR      23  18  80 NE23G36   29.81F WCI   7
SAGUACHE       MOCLDY    36  23  60 NW16G22   29.84R
$$

COZ035-036-038>040-200500-
...NORTHERN COLORADO FRONT RANGE...

CITY           SKY/WX    TMP DP  RH WIND       PRES   REMARKS
DENVER INTL AP MOCLDY    47  35  63 NW16      29.67R
DMNS CITY PARK   N/A     49  34  55 NW3G9     29.69R
AURORA         MOCLDY    46  35  65 N12       29.69R
FRONT RANGE AP MOCLDY    50  36  57 NW16G25   29.68R
ERIE MUNI ARPT FAIR      48  37  64 CALM      29.68R
BOULDER MUN AP CLOUDY    48  32  53 S3        29.69R
CENTENNIAL     CLOUDY    49  30  48 NW7       29.69R
BROOMFIELD     LGT RAIN  46  37  71 N7        29.70R
FORT COLLINS   FAIR      49  35  58 NE12      29.67R
LONGMONT       CLOUDY    50  38  64 N5        29.70R
$$

COZ041-046-047-076>085-087-088-200500-
...PIKES PEAK/PALMER DIVIDE AND SOUTHERN FOOTHILLS...

CITY           SKY/WX    TMP DP  RH WIND       PRES   REMARKS
COLO. SPRINGS  FAIR      47  22  37 NW21G31   29.69R
A. F. ACADEMY  FAIR      43  24  46 W29G43    29.67R
SCHRIEVER AFB  FAIR      39  19  44 N6        29.69R
ELLICOTT       FAIR     N/A N/A N/A SW8       29.67R
FALCON         FAIR      42  22  45 W14       29.71R
FORT CARSON    FAIR      42  19  39 NE5       29.66R
LIMON          FAIR      41  29  62 SE8       29.67R
MONUMENT HILL  FAIR      36  23  60 W7        29.73R
TRINIDAD       FAIR      43  18  36 W15       29.75R
$$

COZ042>045-048>051-090-091-200500-
...NORTHEAST COLORADO...

CITY           SKY/WX    TMP DP  RH WIND       PRES   REMARKS
GREELEY ARPT   LGT RAIN  48  38  68 N8        29.68R
AKRON          FAIR      52  29  41 S18G25    29.61S
BURLINGTON     FAIR      54  32  43 S23       29.68R
WRAY           NOT AVBL
STERLING       NOT AVBL
HOLYOKE        FAIR      59  30  33 S16G24    29.63R
FORT MORGAN    FAIR      51  32  49 NW22      29.62R
$$

COZ086-089-092>099-200500-
...SOUTHEAST COLORADO...

CITY           SKY/WX    TMP DP  RH WIND       PRES   REMARKS
PUEBLO         FAIR      45  22  40 W9        29.67R
LA JUNTA       FAIR      49  23  36 SW13      29.67R
LAMAR          FAIR      54  32  43 S20       29.64F
SPRINGFIELD      N/A     46  33  60 S15       29.72F
$$




USA.gov is the U.S. government's official web portal to all federal, state and local government web resources and services.